EHI
9 9 9 10 12 11 10 10 8 5 4 6 6 8 9 8 6 5 4 5 6 6 4 2 1 1 1 1 1 3 4 4 2 1 0 1 2 2 3 3 2 2 1
10 9 8 10 11 10 9 10 8 5 5 6 7 8 8 7 5 4 4 4 5 5 4 4 3 2 2 2 2 3 5 3 2 1 0 1 2 3 4 3 2 1 1
13 11 10 12 12 11 11 11 9 7 6 7 8 9 8 7 5 4 3 3 4 4 4 5 4 3 2 2 2 4 4 3 1 0 0 2 3 6 7 4 2 3 2
15 14 14 15 16 15 15 13 11 9 8 9 10 10 10 8 7 5 4 4 4 5 5 5 4 3 1 1 2 3 4 3 1 0 0 2 4 7 8 5 4 3 2
18 18 18 18 19 18 16 15 14 12 10 10 11 12 12 10 8 7 6 6 7 8 8 7 5 3 1 0 0 2 3 3 2 1 1 2 5 7 8 7 4 2 1
24 22 22 22 21 19 17 17 17 15 12 12 13 13 12 10 8 7 6 7 8 9 10 9 6 4 2 1 1 0 1 1 1 1 2 4 6 7 9 8 4 1 1
26 25 26 27 25 23 21 21 21 18 14 14 15 15 13 10 7 4 4 6 8 10 11 10 6 4 3 3 3 1 1 1 1 1 3 5 6 8 10 9 6 3 2
27 29 32 33 31 29 28 28 25 20 17 16 18 19 18 13 7 3 2 4 7 9 10 9 7 5 4 4 5 4 3 3 2 1 2 3 3 6 8 8 7 6 5
32 34 37 37 36 34 33 33 29 23 18 17 19 21 20 15 7 1 1 4 6 7 8 8 7 4 3 3 5 7 6 5 4 2 1 1 1 2 5 6 8 9 7
35 36 39 39 37 36 36 36 32 26 20 18 19 19 19 14 6 1 2 5 7 7 9 9 6 3 1 1 5 8 8 6 6 5 3 3 2 3 4 6 10 12 11
33 36 38 38 36 37 38 37 33 28 23 21 20 19 18 14 7 1 2 6 8 9 12 12 9 4 1 0 2 5 5 5 6 7 7 6 6 6 7 9 12 14 14
34 35 36 35 35 35 36 35 32 28 24 23 21 20 20 17 9 3 1 3 6 9 13 14 10 4 1 0 0 1 1 2 4 7 8 8 8 8 8 10 11 12 13
37 35 33 34 34 32 31 31 30 27 23 22 21 21 22 19 13 7 3 1 3 7 11 11 7 2 0 0 0 0 0 1 4 6 8 8 8 8 8 9 10 9 8
36 34 32 32 32 31 29 27 26 24 22 21 21 22 22 19 15 11 7 5 4 5 7 7 4 2 2 2 2 1 1 3 5 7 8 9 9 9 9 10 9 7 5
33 32 30 27 27 27 26 23 20 18 17 18 20 21 20 17 13 11 9 7 5 5 6 6 5 4 4 4 4 4 3 4 5 6 7 8 9 9 9 10 9 7 6
30 29 26 24 23 22 20 16 13 11 9 11 13 14 13 10 7 5 4 4 3 3 5 6 6 4 3 3 4 4 3 3 4 4 5 6 7 7 8 8 7 7 6
27 26 25 24 22 18 15 12 8 6 5 5 6 6 5 4 2 1 0 1 1 1 5 7 6 4 2 2 3 3 3 3 3 3 3 4 5 6 6 6 6 6 6
23 23 22 22 20 16 14 11 7 6 5 3 3 2 1 1 1 0 0 1 1 2 5 8 7 5 3 3 4 4 3 3 3 3 3 3 4 4 5 6 6 6 6
19 18 16 16 16 14 12 10 7 6 5 3 1 1 0 0 0 0 1 2 3 3 4 6 6 6 6 6 6 5 4 3 3 3 3 3 3 3 4 4 4 4 5
16 13 11 11 12 11 9 9 8 6 4 2 1 0 0 0 0 0 1 3 4 3 3 4 5 5 6 6 6 5 4 3 3 3 3 3 3 3 3 3 3 4 4
15 12 8 7 8 7 7 8 8 7 4 2 0 0 0 0 0 0 1 2 2 2 1 2 3 3 4 5 5 4 3 3 3 3 3 3 3 3 3 3 3 3 4
13 11 8 6 6 6 6 6 7 7 6 3 1 0 0 0 0 0 0 1 1 0 0 1 1 1 2 2 2 2 2 2 3 3 3 3 3 3 2 2 3 3 3
9 8 7 6 5 4 5 5 5 6 5 4 2 1 0 0 0 0 0 0 0 0 0 0 0 0 0 0 0 1 1 1 1 2 2 2 2 1 1 1 1 2 1
7 7 6 6 5 4 5 5 5 4 4 3 2 1 0 0 0 0 0 0 0 0 0 0 0 0 0 0 0 0 0 0 0 1 1 1 1 0 0 0 0 0 0
6 6 6 6 5 4 4 4 4 4 4 3 1 0 0 0 0 0 0 0 0 0 0 0 0 0 0 0 0 0 0 0 0 0 0 0 0 0 0 0 0 0 0
6 6 6 6 5 4 4 4 4 4 5 4 1 0 0 0 0 0 0 0 0 0 0 0 0 0 0 0 0 0 0 0 0 0 0 0 0 0 0 0 0 0 0
Wind_Speed
7 6 6 6 6 5 4 4 4 3 3 3 3 2 2 2 1 1 2 2 2 1 1 2 1 1 2 2 2 2 2 2 2 2 2 3 2 1 2 2 3 3 5
8 7 7 6 6 6 5 5 4 4 4 4 3 3 2 2 2 2 2 2 2 2 1 1 2 2 2 2 1 2 2 2 3 3 2 2 2 2 1 1 2 2 4
8 8 7 7 7 6 5 5 5 5 4 4 3 3 2 2 2 2 2 2 2 2 2 2 2 2 2 2 2 2 2 2 2 3 3 2 2 2 2 2 2 1 3
8 8 8 7 7 7 6 6 5 5 5 4 4 3 3 3 3 2 2 2 2 2 2 2 2 2 2 2 2 3 3 3 3 3 3 2 2 2 2 2 2 1 1
9 8 8 8 7 7 7 7 6 6 5 5 4 4 4 3 3 3 3 3 3 2 2 2 2 2 2 0 1 2 3 3 3 3 3 3 2 2 2 2 1 1 1
9 9 8 8 8 7 7 7 6 6 5 5 5 5 4 3 3 2 3 3 3 3 2 2 3 4 4 3 2 1 1 2 3 3 3 3 3 3 2 2 2 2 2
8 8 8 8 8 8 7 7 6 6 6 5 5 5 4 3 4 4 3 3 3 2 3 3 2 3 4 3 4 3 1 1 1 3 3 3 3 3 3 3 2 2 1
8 8 8 8 8 8 7 7 7 6 6 6 6 6 5 5 6 6 5 5 4 3 3 3 3 3 2 2 3 3 3 3 3 3 2 2 2 2 3 3 3 3 2
8 8 9 8 8 8 8 7 7 6 6 6 6 6 5 5 7 7 7 5 4 4 4 3 3 3 2 2 3 3 3 3 3 2 2 1 2 0 2 3 3 3 3
7 7 7 8 8 8 8 7 6 6 6 5 5 5 6 5 7 8 8 6 5 5 5 4 3 3 3 3 4 4 4 3 3 4 3 3 3 3 4 4 3 3 2
7 7 7 7 8 8 7 6 6 6 6 5 5 5 5 5 7 8 8 5 5 5 5 4 4 6 4 3 4 3 3 3 3 3 3 3 3 3 4 3 2 3 3
6 7 6 6 6 6 7 6 6 6 6 6 6 6 5 5 6 7 8 7 4 5 4 4 4 7 6 4 3 2 2 4 3 3 3 3 3 2 2 2 2 1 2
6 6 6 6 6 6 7 7 7 7 6 6 6 6 5 5 6 7 8 7 6 4 2 2 4 7 6 5 5 5 5 5 4 4 3 3 2 2 2 3 3 3 3
6 6 6 6 6 6 5 6 6 6 7 6 6 6 5 6 6 7 7 7 7 7 5 5 6 6 5 3 5 6 6 4 4 4 3 3 3 3 3 3 3 3 3
6 6 6 5 5 5 5 4 6 5 5 6 6 5 6 6 5 4 5 6 6 5 4 5 5 5 5 5 5 5 5 5 5 5 4 4 4 4 4 3 3 3 3
5 6 5 5 4 5 5 4 0 2 3 4 3 4 3 3 6 6 5 4 4 6 6 6 6 6 5 5 5 5 5 5 5 5 5 4 4 4 4 3 4 4 4
5 4 4 5 5 5 5 4 4 2 2 4 4 4 4 5 7 8 7 6 6 8 7 6 6 6 6 6 5 5 5 5 4 5 5 5 4 5 4 4 4 4 5
5 5 5 4 4 5 4 4 4 4 4 3 4 6 7 7 8 9 9 8 6 8 8 7 6 6 6 6 5 5 5 5 5 5 5 5 5 6 5 5 5 5 5
5 4 4 3 4 4 4 4 4 5 4 3 3 4 5 6 7 8 10 8 7 7 7 6 6 6 5 5 5 5 5 5 6 6 5 6 6 6 5 5 5 5 6
4 5 5 4 4 5 5 5 4 4 4 4 4 4 5 5 5 6 8 7 6 6 6 6 6 6 5 5 5 5 6 6 6 7 6 6 6 6 6 6 6 5 5
3 4 7 6 5 5 5 5 4 5 5 4 4 4 5 5 5 6 6 6 6 6 6 6 6 6 6 5 5 6 8 7 6 6 6 6 6 6 6 6 5 6 6
4 4 5 5 4 5 4 4 4 5 5 5 4 4 7 6 5 6 6 6 6 5 5 6 6 5 5 5 6 7 7 7 7 6 6 6 6 6 6 6 6 6 6
4 4 5 4 4 4 5 5 5 5 5 5 4 4 5 6 5 5 5 5 5 5 5 5 6 5 5 5 6 6 7 6 6 6 6 7 6 6 6 6 7 7 7
4 4 5 4 4 4 5 4 5 5 5 5 4 4 5 5 5 6 5 5 5 5 5 5 5 7 8 7 6 6 6 6 6 6 8 7 7 6 6 6 7 7 7
4 4 4 4 4 4 4 5 5 5 5 4 4 4 5 5 5 5 5 5 6 5 6 6 5 7 9 10 8 6 4 3 4 5 7 7 7 7 7 7 6 7 7
4 4 4 4 4 4 4 4 5 5 4 4 4 4 4 4 4 5 5 5 5 5 6 6 7 7 8 8 8 5 3 4 4 5 6 7 7 7 7 6 8 8 7
Wind_Direction
187 185 180 176 168 167 169 167 163 157 155 156 156 158 159 167 174 181 183 158 159 153 171 164 189 212 204 210 200 199 200 178 158 135 127 126 125 122 119 130 135 134 110
183 183 183 175 170 171 171 168 163 166 170 164 164 166 170 156 166 183 175 159 165 170 175 185 197 188 188 219 215 198 169 170 174 156 148 147 147 158 141 158 136 127 115
182 185 180 176 175 178 174 166 166 169 173 172 171 171 172 170 171 175 180 176 180 183 184 195 195 184 199 192 206 189 177 177 170 172 171 150 159 163 158 141 112 132 137
184 187 180 181 179 178 174 170 173 176 179 180 177 180 183 180 177 177 175 169 177 179 174 185 195 195 197 197 197 190 187 180 172 181 172 169 168 170 188 174 158 159 160
185 188 184 183 179 178 175 176 176 183 188 183 183 187 190 192 189 183 188 182 177 165 153 161 153 116 72 33 243 192 185 190 183 180 178 179 176 182 205 203 176 173 160
189 189 183 183 182 182 180 177 176 182 188 186 188 191 196 196 124 162 215 183 183 177 168 161 150 140 122 111 63 37 334 206 194 192 193 192 190 201 208 211 200 203 198
191 189 183 185 187 187 185 180 180 183 186 190 191 193 192 173 150 161 198 204 189 185 184 184 184 143 159 160 150 161 145 28 232 229 210 214 202 199 208 209 211 236 254
194 192 187 190 191 188 187 187 186 184 186 190 193 194 193 176 163 173 190 197 191 190 189 184 179 175 163 177 178 167 170 167 193 208 210 223 212 205 214 221 213 215 213
198 197 193 194 191 188 189 188 184 183 187 190 189 190 193 179 171 183 197 189 182 185 186 183 185 166 131 198 179 171 166 159 128 105 76 84 63 44 254 225 212 219 217
199 200 196 194 194 194 191 188 183 183 186 189 186 191 190 183 172 186 207 200 184 184 176 171 157 167 164 200 192 185 189 181 168 159 158 171 183 178 205 237 238 238 242
196 196 195 197 196 195 189 186 183 185 182 188 188 188 187 183 175 186 208 218 197 194 187 183 161 152 168 199 224 207 201 204 192 187 183 184 189 191 200 208 239 257 260
195 195 194 196 201 191 188 190 189 187 187 189 188 190 185 183 183 184 196 221 238 204 202 189 150 148 166 189 200 169 186 223 210 203 196 198 202 200 192 200 207 254 281
190 193 195 191 195 194 193 195 194 195 202 200 197 197 191 183 172 172 187 206 231 228 209 119 135 155 172 184 186 187 202 217 213 214 213 207 208 198 193 192 194 206 226
191 189 189 192 193 189 199 204 204 204 210 208 207 203 195 191 189 180 181 188 196 204 199 154 158 172 192 184 178 195 216 225 225 218 220 212 205 202 209 210 210 209 218
192 192 194 198 194 196 204 210 219 216 216 217 216 210 206 207 193 177 193 194 198 189 181 189 190 186 194 196 199 202 208 208 214 222 219 213 214 217 212 211 225 228 234
206 201 201 202 197 206 202 202 196 234 180 201 232 239 220 180 158 162 173 172 167 171 195 203 204 205 208 209 207 206 211 215 216 219 220 220 221 221 218 215 220 233 238
216 212 215 209 202 208 206 204 201 187 180 194 200 207 205 171 166 171 172 168 171 175 206 214 212 212 215 217 214 213 215 218 223 223 222 224 224 228 226 223 227 233 240
220 204 215 214 209 212 212 213 212 208 205 205 193 191 186 181 177 174 165 166 185 201 221 223 218 216 218 218 218 219 219 217 217 226 227 228 226 227 226 227 228 236 239
221 217 216 226 220 217 216 214 215 215 217 211 188 166 174 175 180 182 181 207 210 211 219 225 225 221 219 218 220 220 219 220 222 227 226 229 232 233 231 231 228 222 241
215 199 209 225 223 217 215 215 213 211 215 216 214 195 168 185 201 199 207 217 219 217 219 222 228 229 222 218 219 218 219 222 223 227 226 225 228 233 233 234 234 228 232
232 204 194 216 221 220 218 215 212 212 215 222 225 200 180 210 217 216 219 220 223 222 219 222 225 228 224 219 222 224 227 227 226 230 230 228 229 229 233 233 232 236 237
233 229 222 219 220 222 225 220 214 215 216 222 224 191 185 222 226 220 221 224 226 228 226 225 227 226 226 224 225 229 229 228 227 226 229 229 228 229 230 230 231 232 233
233 235 233 229 228 217 219 224 220 219 221 224 219 201 199 224 228 228 226 226 225 230 234 232 231 229 228 230 231 230 232 232 230 227 229 229 229 228 232 234 237 238 239
227 229 234 232 229 228 225 225 225 224 226 229 223 215 214 217 226 229 229 228 227 228 231 230 232 234 235 236 235 232 231 233 233 226 228 232 232 231 231 232 236 236 232
229 229 230 229 228 229 228 228 229 231 230 228 225 227 227 228 231 232 229 226 228 228 228 229 230 234 236 236 237 238 230 225 238 240 226 229 229 232 237 238 237 237 236
227 230 233 235 236 237 235 234 233 232 229 227 227 231 231 231 233 236 234 229 227 227 227 227 228 233 239 235 230 224 200 196 211 236 241 230 229 228 230 231 233 235 235